[[{"header":{"parameterUnit":"m.s-1","parameterCategory":1,"la1":30.2991,"la2":30.254,"lo1":-89.0895,"lo2":-89.0444,"dy":0.0017,"dx":0.0017,"nx":28,"ny":28,"refTime":"2026-01-09T09:00:00:Z","depth":0,"parameterNumber":2,"parameterNumberName":"U-component_of_WINDS"},"data":[0,0,0,0,0,0,0,0,0,0,0,0,0,0,0,0,0,0,0,0,0,0,0,0,0,0,0,0,0,0,0,0,0,0,0,0,0,0,0,0,0,0,0,0,0,0,0,0,0,0,0,0,0,0,0,0,0,0,2.7067,2.7068,0,2.7109,2.7109,2.711,2.7113,2.7112,2.7112,2.7111,2.7152,2.7154,2.7155,0,0,0,0,0,0,0,0,0,0,0,0,0,2.699,2.6991,2.7067,2.7068,2.7068,2.7109,2.7109,2.711,2.7113,2.7112,2.7112,2.7111,2.7152,2.7154,2.7155,0,0,0,0,0,0,0,0,0,0,0,0,0,2.7027,2.6992,2.7067,2.7075,2.7076,2.7109,2.7109,2.711,2.7113,2.7112,2.7112,2.7111,2.7151,2.7153,2.7156,2.7183,0,0,2.7163,2.7164,0,0,0,0,0,0,0,0,2.7025,2.703,2.7073,2.7074,2.7076,2.7105,2.7097,2.7134,2.7113,2.7099,2.7111,2.7111,2.7137,2.714,2.715,2.7185,2.7187,2.7163,2.7164,2.7165,2.7166,0,0,0,0,0,0,0,2.7022,2.7028,2.7084,2.7074,2.7075,2.7076,2.708,2.7104,2.7121,2.71,2.71,2.7105,2.7138,2.7147,2.7151,2.7187,2.7163,2.7165,2.7166,2.7167,2.7248,2.7249,0,0,0,0,0,0,2.7018,2.7026,2.7082,2.7085,2.7048,2.7078,2.7083,2.7096,2.7121,2.7124,2.7106,2.7105,2.7144,2.7148,2.7152,2.7186,2.7165,2.7167,2.7168,2.7248,2.7249,2.7249,0,0,0,0,0,0,2.7017,2.7023,2.7081,2.7055,2.7063,2.708,2.7095,2.7097,2.7107,2.7125,2.7128,2.7113,2.7143,2.7149,2.7176,2.7188,2.7168,2.717,2.7247,2.7248,2.7249,2.7255,0,0,0,0,0,0,2.7014,2.7023,2.7033,2.7056,2.7064,2.7104,2.7096,2.7099,2.7111,2.7111,2.7133,2.7136,2.7143,2.7172,2.7178,2.7191,2.7172,2.7246,2.7247,2.7249,2.7254,2.7256,2.7258,0,0,0,0,0,2.7012,2.7033,2.7034,2.7041,2.7078,2.7105,2.7109,2.7118,2.7112,2.7123,2.7135,2.7135,2.7186,2.7175,2.7181,2.7195,2.7245,2.7247,2.7248,2.7253,2.7256,2.7258,0,0,0,0,0,0,2.7011,2.7036,2.7037,2.7067,2.7084,2.7105,2.7119,2.7121,2.714,2.7138,2.7148,2.7153,2.718,2.719,2.7178,2.7223,2.7215,2.7218,2.7215,2.7219,2.7221,2.7218,2.7174,0,0,0,0,0,2.7014,2.7034,2.7055,2.7079,2.7087,2.7102,2.7114,2.7119,2.7137,2.7144,2.7157,2.7174,2.7194,2.7207,2.7226,2.7255,2.726,2.7268,2.727,2.7272,2.7274,2.7291,2.7295,2.7255,2.7255,2.7255,0,0,2.7021,2.7037,2.7049,2.7079,2.7093,2.7113,2.7108,2.7129,2.7144,2.7147,2.7173,2.7184,2.7204,2.7232,2.7245,2.7241,2.7286,2.7274,2.7275,2.7277,2.7293,2.7297,2.73,2.7257,2.7256,2.7256,0,0,2.7044,2.7058,2.708,2.7094,2.7115,2.7125,2.713,2.7152,2.7159,2.7186,2.7189,2.7207,2.7241,2.7255,2.7266,2.7296,2.7297,2.7302,2.7314,2.733,2.7333,2.7336,2.7347,2.735,2.7304,2.7304,2.7304,0,2.705,2.7081,2.7091,2.7112,2.7126,2.713,2.7152,2.7165,2.7191,2.72,2.7196,2.7239,2.7252,2.7284,2.7292,2.7301,2.7307,2.7299,2.7332,2.7335,2.7337,2.7348,2.7352,2.7305,2.7305,2.7305,2.7305,0,2.7087,2.7108,2.7123,2.7149,2.7164,2.7186,2.7199,2.7213,2.7217,2.7228,2.7255,2.7272,2.7295,2.7303,2.7307,2.7335,2.7332,2.733,2.7321,2.7342,2.7352,2.7356,2.7306,2.7305,2.7305,2.7305,0,0,2.711,2.7142,2.7147,2.7159,2.7184,2.72,2.7222,2.7246,2.7257,2.7275,2.7294,2.7323,2.7321,2.7335,2.7341,2.7355,2.7378,2.735,2.7351,2.7355,2.7411,2.7413,2.7417,2.7379,2.7379,2.738,2.7409,0,2.7135,2.7175,2.7186,2.7219,2.724,2.7245,2.7264,2.7281,2.7291,2.731,2.7321,2.7341,2.7337,2.7345,2.736,2.7372,2.7389,2.737,2.7396,2.7397,2.7391,2.7422,2.7424,2.7451,2.7413,2.7414,2.7414,0,2.7171,2.7191,2.7227,2.7249,2.7258,2.7275,2.7298,2.7315,2.7335,2.7341,2.7357,2.7361,2.7385,2.7375,2.7408,2.7394,2.7406,2.7414,2.7415,2.7417,2.7407,2.7426,2.7459,2.7463,2.742,2.742,2.7419,0,2.7184,2.722,2.7246,2.7256,2.7283,2.7295,2.7307,2.7326,2.7339,2.7359,2.7368,2.739,2.7401,2.7418,2.7429,2.7421,2.746,2.7452,2.7466,2.7466,2.7474,2.7474,2.751,2.7482,2.7482,2.7482,2.7481,0,2.7212,2.7234,2.7253,2.7269,2.7294,2.7305,2.733,2.7341,2.7358,2.7377,2.7382,2.74,2.7413,2.7432,2.744,2.7466,2.7471,2.7477,2.7479,2.7477,2.7476,2.7484,2.7482,2.7483,2.7482,2.7482,2.7482,0,2.7231,2.7244,2.7274,2.7297,2.7303,2.7321,2.7341,2.7356,2.7367,2.7391,2.7397,2.7414,2.7437,2.7449,2.7478,2.7484,2.7512,2.7513,2.7506,2.7507,2.7521,2.7519,2.7564,2.757,2.7537,2.7538,2.7538,0,2.7247,2.7265,2.729,2.7303,2.7315,2.7336,2.735,2.7363,2.7377,2.7401,2.7414,2.7438,2.7457,2.7493,2.7508,2.753,2.7531,2.7546,2.7535,2.7532,2.7532,2.7531,2.7533,2.7547,2.7548,2.7548,2.7548,0,2.7276,2.7282,2.7302,2.7325,2.7342,2.7361,2.7379,2.7389,2.7405,2.7421,2.7444,2.746,2.7489,2.7512,2.7536,2.7548,2.755,2.7552,2.7556,2.7554,2.7549,2.7552,2.7511,2.755,2.755,2.755,2.755,2.755,2.7294,2.731,2.7331,2.7353,2.7369,2.7386,2.7402,2.7416,2.7436,2.7461,2.7467,2.7492,2.7512,2.7544,2.7557,2.7577,2.7574,2.758,2.7582,2.7583,2.7584,2.7546,2.7581,2.7581,2.7581,2.7581,2.7581,0,2.7323,2.7337,2.7358,2.7383,2.7401,2.7403,2.7424,2.7439,2.7461,2.748,2.7499,2.7527,2.7549,2.7566,2.759,2.7602,2.7604,2.7608,2.7607,2.761,2.7585,2.7579,2.7606,2.7606,2.7606,2.7606,2.7606,2.7606,2.734,2.7367,2.7376,2.741,2.7424,2.7449,2.7461,2.7477,2.7492,2.7523,2.7542,2.7553,2.7571,2.7596,2.7617,2.7621,2.763,2.7633,2.7638,2.7614,2.7612,2.7609,2.7603,2.7635,2.7635,2.7661,2.7661,2.7662]},{"header":{"parameterUnit":"m.s-1","parameterCategory":1,"la1":30.2991,"la2":30.254,"lo1":-89.0895,"lo2":-89.0444,"dy":0.0017,"dx":0.0017,"nx":28,"ny":28,"refTime":"2026-01-09T09:00:00:Z","depth":0,"parameterNumber":3,"parameterNumberName":"V-component_of_WINDS"},"data":[0,0,0,0,0,0,0,0,0,0,0,0,0,0,0,0,0,0,0,0,0,0,0,0,0,0,0,0,0,0,0,0,0,0,0,0,0,0,0,0,0,0,0,0,0,0,0,0,0,0,0,0,0,0,0,0,0,0,-1.957,-1.9564,0,-1.8987,-1.898,-1.8974,-1.8848,-1.8852,-1.8856,-1.886,-1.8244,-1.8224,-1.8204,0,0,0,0,0,0,0,0,0,0,0,0,0,-2.0562,-2.0545,-1.9571,-1.9564,-1.9556,-1.8988,-1.898,-1.8972,-1.8847,-1.8852,-1.8857,-1.8862,-1.8251,-1.8227,-1.8202,0,0,0,0,0,0,0,0,0,0,0,0,0,-2.007,-2.0539,-1.9572,-1.9426,-1.9407,-1.899,-1.898,-1.897,-1.8846,-1.8852,-1.8859,-1.8865,-1.8259,-1.8229,-1.8199,-1.7881,0,0,-1.8105,-1.8092,0,0,0,0,0,0,0,0,-2.0098,-2.0034,-1.9454,-1.9435,-1.9413,-1.8997,-1.9103,-1.8604,-1.8844,-1.9058,-1.886,-1.8868,-1.8488,-1.8439,-1.8315,-1.7852,-1.7825,-1.8103,-1.8084,-1.8071,-1.8062,0,0,0,0,0,0,0,-2.0132,-2.0058,-1.9339,-1.9446,-1.9421,-1.9384,-1.9322,-1.9008,-1.8743,-1.904,-1.903,-1.8963,-1.8478,-1.8345,-1.83,-1.7816,-1.8104,-1.8076,-1.8058,-1.8046,-1.7063,-1.7055,0,0,0,0,0,0,-2.0195,-2.0087,-1.9358,-1.9322,-1.9779,-1.9362,-1.9291,-1.9124,-1.8747,-1.8696,-1.8958,-1.896,-1.8394,-1.8335,-1.8277,-1.7879,-1.8071,-1.8043,-1.8025,-1.707,-1.7061,-1.7053,0,0,0,0,0,0,-2.0216,-2.0131,-1.9381,-1.9701,-1.9603,-1.9338,-1.915,-1.9109,-1.8976,-1.8685,-1.8636,-1.8872,-1.8397,-1.8321,-1.7982,-1.7856,-1.8029,-1.8001,-1.708,-1.7068,-1.7057,-1.7081,0,0,0,0,0,0,-2.0245,-2.0139,-2.0019,-1.97,-1.9587,-1.9099,-1.9143,-1.9093,-1.8925,-1.8921,-1.8591,-1.8542,-1.8396,-1.8028,-1.7951,-1.7817,-1.7977,-1.7089,-1.7074,-1.7061,-1.709,-1.7072,-1.7056,0,0,0,0,0,-2.0281,-2.0044,-2.0013,-1.9926,-1.9431,-1.9093,-1.9027,-1.8869,-1.8916,-1.879,-1.8604,-1.8552,-1.7884,-1.7995,-1.7907,-1.7761,-1.7096,-1.7078,-1.7062,-1.7098,-1.7076,-1.7057,0,0,0,0,0,0,-2.0347,-2.0,-1.9961,-1.9615,-1.9386,-1.9072,-1.8908,-1.885,-1.8597,-1.8603,-1.8413,-1.8339,-1.8012,-1.7853,-1.7982,-1.7434,-1.7491,-1.7456,-1.7549,-1.7525,-1.7509,-1.7551,-1.7952,0,0,0,0,0,-2.0324,-2.0083,-1.979,-1.9512,-1.94,-1.9175,-1.9021,-1.8921,-1.8672,-1.8572,-1.8361,-1.8117,-1.7852,-1.768,-1.742,-1.7069,-1.6993,-1.6926,-1.6909,-1.6897,-1.6866,-1.6667,-1.6634,-1.6996,-1.6996,-1.6996,0,0,-2.0267,-2.0048,-1.9906,-1.9521,-1.933,-1.9081,-1.9093,-1.8828,-1.8639,-1.8529,-1.8198,-1.8036,-1.775,-1.7405,-1.7241,-1.7261,-1.6751,-1.6874,-1.6867,-1.6842,-1.6646,-1.6612,-1.6582,-1.6984,-1.6986,-1.6988,0,0,-2.0038,-1.985,-1.9599,-1.941,-1.9126,-1.8978,-1.8919,-1.8615,-1.8504,-1.8171,-1.8084,-1.7855,-1.7402,-1.7203,-1.7043,-1.6746,-1.6687,-1.6666,-1.6574,-1.6383,-1.6355,-1.6328,-1.622,-1.6183,-1.6638,-1.6638,-1.6638,0,-2.0003,-1.9629,-1.9475,-1.9215,-1.9047,-1.8945,-1.8687,-1.851,-1.8152,-1.8036,-1.8067,-1.7499,-1.73,-1.6906,-1.6835,-1.6709,-1.6631,-1.67,-1.6373,-1.6344,-1.6317,-1.6211,-1.6171,-1.6637,-1.6637,-1.6637,-1.6637,0,-1.9599,-1.9341,-1.9171,-1.8836,-1.8649,-1.8391,-1.8195,-1.8024,-1.7941,-1.779,-1.7451,-1.721,-1.69,-1.68,-1.6713,-1.6393,-1.6415,-1.6412,-1.6464,-1.6285,-1.6182,-1.614,-1.6635,-1.6636,-1.6636,-1.6636,0,0,-1.9387,-1.8978,-1.8917,-1.8765,-1.8446,-1.824,-1.7978,-1.7682,-1.7537,-1.7295,-1.7067,-1.6691,-1.6687,-1.6505,-1.6396,-1.6229,-1.6007,-1.6245,-1.6236,-1.6207,-1.5637,-1.564,-1.5595,-1.5971,-1.5962,-1.5955,-1.5661,0,-1.9117,-1.8651,-1.8508,-1.8114,-1.7873,-1.7776,-1.7546,-1.7324,-1.7177,-1.6947,-1.6782,-1.6517,-1.6534,-1.6424,-1.6255,-1.6071,-1.589,-1.609,-1.5751,-1.574,-1.5821,-1.5542,-1.5541,-1.5274,-1.562,-1.5613,-1.5608,0,-1.8738,-1.8497,-1.8083,-1.7798,-1.769,-1.7488,-1.7206,-1.6989,-1.6734,-1.6639,-1.644,-1.6346,-1.6064,-1.614,-1.5747,-1.5887,-1.574,-1.5629,-1.5615,-1.5572,-1.566,-1.5488,-1.5185,-1.5144,-1.5543,-1.5548,-1.5553,0,-1.8623,-1.8195,-1.7892,-1.7764,-1.7424,-1.7284,-1.7135,-1.6887,-1.672,-1.6472,-1.636,-1.6082,-1.5927,-1.5712,-1.5544,-1.5615,-1.5165,-1.5226,-1.5074,-1.5078,-1.4978,-1.4985,-1.4644,-1.4892,-1.4892,-1.4893,-1.4894,0,-1.8333,-1.8082,-1.7836,-1.7649,-1.7364,-1.7202,-1.6923,-1.6768,-1.655,-1.6328,-1.6226,-1.6019,-1.5813,-1.5577,-1.5444,-1.5138,-1.5069,-1.4981,-1.4947,-1.4987,-1.4998,-1.4884,-1.4896,-1.4882,-1.4885,-1.4887,-1.4889,0,-1.8153,-1.7979,-1.7642,-1.7351,-1.7272,-1.7075,-1.6823,-1.6636,-1.6489,-1.6209,-1.6134,-1.59,-1.5618,-1.5432,-1.5069,-1.498,-1.4645,-1.4618,-1.4733,-1.4716,-1.4573,-1.4588,-1.4142,-1.4074,-1.4373,-1.437,-1.4368,0,-1.7977,-1.7783,-1.7474,-1.7322,-1.7174,-1.6929,-1.6759,-1.6592,-1.6419,-1.6117,-1.5965,-1.5679,-1.544,-1.4994,-1.4787,-1.451,-1.4472,-1.4336,-1.4429,-1.4476,-1.4466,-1.4478,-1.4456,-1.4319,-1.4317,-1.4315,-1.4313,0,-1.7683,-1.7608,-1.7371,-1.7103,-1.6906,-1.6686,-1.6464,-1.6344,-1.6138,-1.5948,-1.5663,-1.5479,-1.5113,-1.4828,-1.4533,-1.4374,-1.4306,-1.4287,-1.4236,-1.4272,-1.4345,-1.4301,-1.4688,-1.4296,-1.4298,-1.4299,-1.43,-1.4301,-1.7496,-1.732,-1.7076,-1.6815,-1.6634,-1.6431,-1.6242,-1.6074,-1.5835,-1.5529,-1.5444,-1.5146,-1.4897,-1.4495,-1.4332,-1.4093,-1.4107,-1.4034,-1.4014,-1.3998,-1.3996,-1.439,-1.4039,-1.4039,-1.4039,-1.4039,-1.4039,0,-1.7194,-1.7035,-1.6797,-1.6495,-1.6289,-1.6255,-1.6009,-1.5838,-1.5579,-1.5355,-1.5126,-1.4797,-1.4522,-1.4298,-1.4013,-1.3865,-1.3827,-1.3795,-1.3801,-1.3765,-1.4001,-1.4072,-1.3831,-1.3831,-1.3831,-1.3831,-1.3831,-1.3831,-1.7012,-1.6712,-1.6609,-1.6217,-1.6057,-1.5769,-1.5632,-1.5443,-1.5265,-1.4905,-1.4679,-1.4538,-1.4313,-1.4012,-1.3757,-1.3698,-1.3595,-1.357,-1.3503,-1.3726,-1.3749,-1.3771,-1.3836,-1.355,-1.355,-1.3287,-1.3285,-1.3283]}]]